TimeMST,TemperatureF,Dew PointF,Humidity,Sea Level PressureIn,VisibilityMPH,Wind Direction,Wind SpeedMPH,Gust SpeedMPH,PrecipitationIn,Events,Conditions,WindDirDegrees,DateUTC
12:53 AM,57.0,24.1,28,30.08,10.0,SE,4.6,-,N/A,,Clear,140,2011-10-23 07:53:00
1:53 AM,54.0,26.1,34,30.08,10.0,Calm,Calm,-,N/A,,Clear,0,2011-10-23 08:53:00
2:53 AM,55.0,26.1,33,30.08,10.0,NW,3.5,-,N/A,,Clear,310,2011-10-23 09:53:00
3:53 AM,52.0,26.1,37,30.09,10.0,Calm,Calm,-,N/A,,Clear,0,2011-10-23 10:53:00
4:53 AM,51.1,25.0,36,30.10,10.0,Calm,Calm,-,N/A,,Clear,0,2011-10-23 11:53:00
5:53 AM,52.0,25.0,35,30.12,10.0,Calm,Calm,-,N/A,,Clear,0,2011-10-23 12:53:00
6:53 AM,51.8,26.6,38,30.24,9.0,West,3.5,-,N/A,,Clear,260,2011-10-23 13:53:00
7:53 AM,55.9,30.0,37,30.16,10.0,Calm,Calm,-,N/A,,Clear,0,2011-10-23 14:53:00
8:53 AM,60.1,27.0,28,30.17,10.0,Calm,Calm,-,N/A,,Clear,0,2011-10-23 15:53:00
9:53 AM,63.0,27.0,26,30.17,10.0,WNW,3.5,-,N/A,,Clear,300,2011-10-23 16:53:00
10:53 AM,66.9,26.1,21,30.15,10.0,Calm,Calm,-,N/A,,Clear,0,2011-10-23 17:53:00
11:53 AM,69.1,27.0,21,30.12,10.0,Calm,Calm,-,N/A,,Clear,0,2011-10-23 18:53:00
12:53 PM,72.0,28.0,20,30.09,10.0,NNE,9.2,-,N/A,,Clear,30,2011-10-23 19:53:00
1:53 PM,73.0,28.0,19,30.05,10.0,NNE,6.9,-,N/A,,Clear,30,2011-10-23 20:53:00
2:53 PM,75.0,26.1,16,30.03,10.0,NNE,6.9,-,N/A,,Clear,20,2011-10-23 21:53:00
3:53 PM,75.0,24.1,15,30.01,10.0,NE,4.6,-,N/A,,Clear,50,2011-10-23 22:53:00
4:53 PM,73.4,24.8,16,30.14,10.0,NNE,3.5,-,N/A,,Clear,20,2011-10-23 23:53:00
5:53 PM,66.0,28.9,25,30.02,10.0,Calm,Calm,-,N/A,,Clear,0,2011-10-24 00:53:00
6:53 PM,63.0,28.9,28,30.04,10.0,Calm,Calm,-,N/A,,Clear,0,2011-10-24 01:53:00
7:53 PM,62.1,28.0,28,30.04,10.0,SW,4.6,-,N/A,,Clear,220,2011-10-24 02:53:00
8:53 PM,61.0,26.1,26,30.04,10.0,Calm,Calm,-,N/A,,Clear,0,2011-10-24 03:53:00
9:53 PM,57.2,26.6,31,30.16,10.0,Calm,Calm,-,N/A,,Clear,0,2011-10-24 04:53:00
10:53 PM,57.0,25.0,29,30.02,10.0,Calm,Calm,-,N/A,,Clear,0,2011-10-24 05:53:00
11:53 PM,57.9,25.0,28,30.02,10.0,SSW,4.6,-,N/A,,Clear,210,2011-10-24 06:53:00